Creek Data

    Home     View Charts     View Raw Data     Messages

ID Distance Battery Voltage Battery Current Internal Temp Internal Humidity External Temp Solar Input rssi snr Time Stamp Record
36828 15.0 3.90 -5 41 40 43 0 -79 8 04/04/2025 03:00 AM 18689
36827 15.0 3.90 -5 40 41 44 0 -79 9 04/04/2025 02:45 AM 18688
36826 0.0 3.90 -5 39 42 41 0 -79 8 04/04/2025 02:30 AM 18687
36825 15.0 3.90 -5 39 42 39 0 -78 8 04/04/2025 02:15 AM 18686
36824 15.0 3.90 -5 41 42 40 0 -77 8 04/04/2025 02:00 AM 18685
36823 15.0 3.78 -5 43 41 41 0 -77 8 04/04/2025 01:45 AM 18684
36822 15.0 3.76 -5 45 40 47 0 -78 7 04/04/2025 01:30 AM 18683
36821 15.0 3.78 -5 46 40 48 0 -78 8 04/04/2025 01:15 AM 18682
36820 15.0 3.90 -5 46 40 48 0 -78 9 04/04/2025 01:00 AM 18681
36819 15.0 3.78 -5 46 40 48 0 -78 7 04/04/2025 12:45 AM 18680
36818 15.0 3.84 -5 46 40 48 0 -79 8 04/04/2025 12:30 AM 18679
36817 15.0 3.86 -30 46 40 48 0 -79 7 04/04/2025 12:15 AM 18678
36816 15.0 3.84 -5 46 41 48 0 -78 8 04/03/2025 11:45 PM 18676
36815 15.0 3.92 -5 46 41 48 0 -78 8 04/03/2025 11:30 PM 18675
36814 0.0 3.84 -5 47 41 49 0 -79 8 04/03/2025 11:15 PM 18674
36813 0.0 3.85 -5 47 41 50 0 -78 8 04/03/2025 11:00 PM 18673
36812 0.0 3.85 -5 48 41 50 0 -78 8 04/03/2025 10:45 PM 18672
36811 0.0 3.85 -5 48 41 51 0.1 -78 7 04/03/2025 10:30 PM 18671
36810 0.0 3.86 -5 49 41 51 0 -77 7 04/03/2025 10:15 PM 18670
36809 0.0 3.93 -5 50 42 51 0 -77 7 04/03/2025 10:00 PM 18669
36808 0.0 3.85 -5 50 42 52 0 -78 7 04/03/2025 09:45 PM 18668
36807 0.0 3.93 -5 50 42 53 0 -78 8 04/03/2025 09:30 PM 18667
36806 0.0 3.86 -5 50 43 52 0 -78 8 04/03/2025 09:15 PM 18666
36805 0.0 3.86 -5 51 44 53 0 -79 8 04/03/2025 09:00 PM 18665
36804 14.9 3.85 -5 52 44 54 0 -78 8 04/03/2025 08:45 PM 18664